Tacoma Narrows, WA
on Sunday, December 9, 2012

Sunday
Previous Day Next Day
Daily Summary
 ActualAverageRecord
Temperature
Mean Temperature °F °F  
Max Temperature 44°F 45°F 55°F (2004)
Min Temperature 39°F 38°F 24°F (2013)
Degree Days
Heating Degree Days 24    
Moisture
Dew Point 39°F   
Average Humidity 90    
Maximum Humidity 100    
Minimum Humidity 83    
Precipitation
Precipitation 0.14 in in in ()
Wind
Wind Speed 4 mph   
Max Wind Speed 8 mph   
Max Gust Speed mph   
Visibility 5 miles   
Events Rain   
Averages and records for this station are not official NWS values.
Key: T is trace of precipitation, MM is missing value
Source: NWS Daily Summary
Seasonal Weather Averages
Time(PST)TemperatureDew PointHumidity Pressure Visibility Wind DirectionWind SpeedGust SpeedPrecipitationEvents Conditions
12:06 AM 41.0°F 37.4°F 87% 30.34 in 10.0 miles SSW 5.8 mph - N/A   Overcast
12:14 AM 41.0°F 37.4°F 87% 30.34 in 10.0 miles South 6.9 mph - N/A   Overcast
12:53 AM 39.9°F 37.0°F 89% 30.36 in 10.0 miles South 6.9 mph - N/A   Mostly Cloudy
1:11 AM 39.2°F 37.4°F 93% 30.34 in 10.0 miles South 5.8 mph - N/A   Overcast
1:27 AM 39.2°F 37.4°F 93% 30.34 in 10.0 miles South 5.8 mph - N/A   Overcast
1:49 AM 39.2°F 35.6°F 87% 30.35 in 10.0 miles SSW 6.9 mph - N/A   Overcast
1:53 AM 39.9°F 35.1°F 83% 30.37 in 10.0 miles SW 4.6 mph - N/A   Overcast
2:05 AM 39.2°F 35.6°F 87% 30.35 in 10.0 miles SSW 8.1 mph - N/A   Overcast
2:53 AM 39.9°F 35.1°F 83% 30.38 in 10.0 miles SSW 4.6 mph - N/A   Overcast
3:34 AM 39.2°F 35.6°F 87% 30.37 in 10.0 miles SW 4.6 mph - N/A   Mostly Cloudy
3:53 AM 39.9°F 35.1°F 83% 30.38 in 10.0 miles Calm Calm - N/A   Overcast
4:24 AM 39.2°F 35.6°F 87% 30.36 in 10.0 miles SSW 4.6 mph - N/A   Overcast
4:34 AM 39.2°F 35.6°F 87% 30.36 in 10.0 miles SSW 3.5 mph - N/A   Overcast
4:53 AM 39.9°F 35.1°F 83% 30.37 in 10.0 miles Calm Calm - N/A   Overcast
5:10 AM 39.2°F 35.6°F 87% 30.36 in 10.0 miles South 4.6 mph - N/A   Overcast
5:53 AM 39.9°F 35.1°F 83% 30.37 in 10.0 miles Calm Calm - N/A   Overcast
6:53 AM 39.0°F 35.1°F 86% 30.37 in 10.0 miles Calm Calm - N/A   Overcast
7:53 AM 39.9°F 35.1°F 83% 30.36 in 10.0 miles Calm Calm - N/A   Overcast
8:53 AM 39.9°F 35.1°F 83% 30.35 in 10.0 miles Calm Calm - N/A   Overcast
8:56 AM 39.2°F 35.6°F 87% 30.35 in 10.0 miles Calm Calm - N/A   Overcast
9:53 AM 39.9°F 36.0°F 86% 30.37 in 6.0 miles Calm Calm - N/A   Overcast
10:32 AM 39.2°F 37.4°F 93% 30.35 in 10.0 miles South 3.5 mph - N/A   Overcast
10:53 AM 41.0°F 37.0°F 86% 30.35 in 10.0 miles SE 3.5 mph - N/A   Overcast
11:01 AM 41.0°F 37.4°F 87% 30.34 in 3.0 miles SSE 3.5 mph - N/A   Overcast
11:04 AM 39.2°F 37.4°F 93% 30.33 in 2.0 miles Calm Calm - N/A   Overcast
11:53 AM 39.9°F 37.9°F 93% 30.32 in 2.0 miles South 5.8 mph - 0.01 in   Overcast
12:21 PM 41.0°F 37.4°F 87% 30.30 in 2.0 miles SSW 5.8 mph - N/A   Overcast
12:34 PM 41.0°F 39.2°F 93% 30.31 in 2.0 miles SSW 3.5 mph - 0.01 in   Overcast
12:53 PM 41.0°F 39.0°F 93% 30.31 in 2.0 miles South 3.5 mph - 0.01 in   Overcast
1:53 PM 42.1°F 39.9°F 92% 30.30 in 2.0 miles Calm Calm - N/A   Overcast
1:57 PM 42.8°F 39.2°F 87% 30.28 in 2.0 miles SSE 3.5 mph - N/A   Overcast
2:03 PM 42.8°F 39.2°F 87% 30.28 in 2.0 miles SSE 3.5 mph - N/A   Overcast
2:06 PM 42.8°F 39.2°F 87% 30.28 in 2.0 miles Calm Calm - N/A   Overcast
2:53 PM 42.1°F 41.0°F 96% 30.28 in 2.0 miles Calm Calm - N/A   Overcast
2:54 PM 42.8°F 41.0°F 93% 30.27 in 2.0 miles SE 3.5 mph - N/A   Overcast
3:53 PM 43.0°F 41.0°F 93% 30.30 in 2.0 miles SSW 4.6 mph - 0.01 in   Overcast
4:53 PM 43.0°F 41.0°F 93% 30.30 in 2.0 miles South 4.6 mph - N/A   Overcast
5:53 PM 44.1°F 42.1°F 93% 30.31 in 2.0 miles Calm Calm - 0.01 in Rain Light Rain
6:53 PM 44.1°F 42.1°F 93% 30.30 in 2.0 miles Calm Calm - 0.03 in   Overcast
7:53 PM 43.0°F 42.1°F 97% 30.30 in 2.0 miles NE 3.5 mph - 0.02 in   Overcast
8:00 PM 42.8°F 42.8°F 100% 30.30 in 1.2 miles Calm Calm - N/A   Overcast
8:45 PM 44.6°F 42.8°F 93% 30.32 in 2.0 miles Calm Calm - 0.02 in   Overcast
8:53 PM 44.1°F 42.1°F 93% 30.32 in 2.0 miles Calm Calm - 0.02 in   Overcast
8:57 PM 44.6°F 42.8°F 93% 30.31 in 2.0 miles Calm Calm - N/A   Overcast
9:05 PM 44.6°F 42.8°F 93% 30.31 in 2.0 miles Calm Calm - 0.01 in   Overcast
9:20 PM 44.6°F 42.8°F 93% 30.32 in 2.0 miles Calm Calm - 0.01 in   Overcast
9:36 PM 44.6°F 42.8°F 93% 30.33 in 1.8 miles North 3.5 mph - 0.01 in   Overcast
9:53 PM 44.1°F 42.1°F 93% 30.35 in 1.8 miles North 5.8 mph - 0.02 in   Overcast
10:03 PM 44.6°F 42.8°F 93% 30.34 in 2.0 miles North 5.8 mph - N/A   Overcast
10:53 PM 44.1°F 42.1°F 93% 30.36 in 2.5 miles NNE 3.5 mph - N/A   Overcast
11:22 PM 44.6°F 42.8°F 93% 30.35 in 3.0 miles Calm Calm - N/A   Overcast
11:43 PM 44.6°F 42.8°F 93% 30.34 in 1.8 miles Calm Calm - 0.01 in   Overcast
11:53 PM 44.1°F 42.1°F 93% 30.35 in 1.0 miles Calm Calm - 0.01 in   Mist
Moon Phase
Dec. 09 Dec. 13 Dec. 20 Dec. 28 Jan. 04
Sunrise:07:45 AM (PST) Moon Rise:03:12 AM (PST)12/9
Sunset:04:20 PM (PST) Moon Set:01:41 PM (PST)12/9

Copyright © 2014 The Weather Underground, Inc.